Starlink 31965

operational
NORAD ID: 59888 Int'l Des: 2024-100 Owner: SPXS Country: US Constellation: starlink
LEOCIRCULAR

About Starlink 31965

Description loading...

Live Position

Loading 3D Globe...

Upcoming Passes

Altitude History

Altitude vs Time

uPlot chart will show altitude changes over time

Two-Line Element Set

1 59888U 24100D 25307.87897981 .00029393 00000-0 10726-2 0 9993
2 59888 43.0013 116.0908 0002007 278.3449 81.7175 15.27603426 81815
Epoch: Nov 3, 2025 • Age: 18 hours

Current Status

Altitude 482.7 km
Velocity 7.63 km/s
Sub-Earth Point 14.29°N, 6.25°E
Launch Date May 28, 2024
Age 1.4 years
Type internet

Technical Details

Classification Payload
Mass 730.00 kg
Dry Mass 700.00 kg
Total Mass 730.00 kg
Length 0.30 m
Diameter 4.10 m
Span 29.00 m
Shape Box + pan
Manufacturer SPXS
Bus Type Starlink V2M
Phase Status In Orbit
Owner/State SPXS/US

Large Constellations

Loading constellations...